THOR ALTAIR DEB, 1931

Orbit data source: Space-Track

THOR ALTAIR DEB, 1931 is space debris in SSO originally from a launch on Fri, 10 Sep 1965 UTC launched from the Air Force Western Test Range (AFWTR). Debris objects in space refer to the collection of defunct objects orbiting the Earth. Examples of debris include non-operational satellites, rocket bodies, and fragments generated from explosions, collisions, or faulty payload assembly.

Loading next visibility...
Identifier
1931, 1965-072E
Orbit
SSO
Last TLE update
22 hours ago
Origin
Manufacturer
Unknown
Mission
Spacecraft
Bus & Motor
Unknown
Mass
Unknown
Launch date (UTC)
1965-09-10 (60 years ago)
Launch vehicle
Unknown
Launch site
Air Force Western Test Range (AFWTR)
Object type
Payload
Rocket body
Debris
Shape & HBR
Unknown
Radar Cross Section
Small (<0.1 m²)

Expand to show TLE details & history

TLE from 22 hours ago
0 THOR ALTAIR DEB
1 01931U 65072E   25183.28309989  .00001036  00000-0  28257-3 0  9998
2 01931  99.0363 198.9318 0238778  21.4003 339.6963 14.34291460142673
Epoch: 2025-07-02T06:47Z
TLE epoch observation values (Epoch: 2025-07-02T06:47:39.83Z)
Latitude
-0.00012°
Longitude
176.44943°
Altitude
620.58 km
Speed
7.632 km/s
True Right ascension
13h 15m 43s
True Declination
0° 00' 00"
Sunlit
Object was in daylight at epoch
Visualization orbit readout
Latitude
26.12853°
Longitude
1.87912°
Altitude
899.108 km
Speed
7.343 km/s
Apparent Right ascension
03h 03m 38s
Apparent Declination
-4° 52' 35"
Sunlit
Object is in daylight
Visualization observer readout
Local Sidereal Time
17:01:03
Azimuth
44.786° NE
Elevation
-46.108°
Doppler factor
1
Orbital elements
Apogee altitude
945.366 km
Perigee altitude
603.784 km
Semi-major axis
7,152.712 km
Eccentricity
0.02388
Inclination
99.0363°
RAAN
198.9318°
Arg. of periapsis
21.4003°
True anomaly
Unknown
Mean anomaly
339.6963°
Eccentric anomaly
Unknown
Mean motion
3.58787 °/min
Orbital period
100.34 mins
BSTAR
0.00028257
Loading maneuver chart data...
Loading SW <> Apogee altitude chart data...
Loading historical data...
Loading historical data...
Loading historical data...
Loading historical data...
Loading historical data...
Loading historical data...
Loading historical data...

THOR ALTAIR DEB Visibility forecast

Observer location: undefined°, undefined°

Span
Click to sort rows by Start time (UTC) header in descending order
Start Az.
Max El. time (UTC)
Max El. Az.
Max El.
End time (UTC)
End Az.
10 mins2025-07-03 13:29:34.189Z28.282° NE2025-07-03 13:34:34.189Z113.715° SE36.572°2025-07-03 13:39:34.189Z174.4° S
6 mins2025-07-03 15:10:34.189Z330.723° NNW2025-07-03 15:12:34.189Z302.532° NW21.608°2025-07-03 15:16:34.189Z250.04° W
6 mins2025-07-04 00:47:34.189Z146.629° SSE2025-07-04 00:49:34.189Z99.996° ESE40.823°2025-07-04 00:53:34.189Z354.242° N
|